Regional Weather Roundup
Issued by NWS San Diego, CA

Home | Current Version | Previous Version | Text Only | Print | Product List | Glossary On
Versions: 1 2 3 4 5 6 7 8 9 10 11 12 13 14 15 16 17 18 19 20 21 22 23 24 25 26 27 28 29 30 31 32 33 34 35 36 37 38 39 40 41 42 43 44 45 46 47 48 49 50
482
ASUS46 KSGX 271611
RWRSGX

SAN DIEGO HOURLY WEATHER ROUNDUP
NATIONAL WEATHER SERVICE SAN DIEGO CA
900 AM PDT MON MAR 27 2017

NOTE: "FAIR" INDICATES FEW OR NO CLOUDS BELOW 12,000 FEET WITH NO
SIGNIFICANT WEATHER AND/OR OBSTRUCTIONS TO VISIBILITY.

CAZ042-043-060-061-PZZ750-775-271700-

GREATER SAN DIEGO AREA

CITY           SKY/WX    TMP DP  RH WIND       PRES   REMARKS
SAN DIEGO AP   PTSUNNY   61  52  72 SW3       30.06R
NATIONAL CITY    N/A     60  55  82 S3        30.06R
CHULA VISTA      N/A     60  55  82 W2        29.98R
IMPERIAL BEACH MOSUNNY   62  52  69 W7        30.06R
BROWN FIELD    PTSUNNY   58  52  80 W6        30.06R
MIRAMAR MCAS   PTSUNNY   61  52  72 CALM      30.04R
MONTGOMERY FLD CLOUDY    59  50  72 W5        30.05R

$$

NORTH SAN DIEGO COUNTY

CITY           SKY/WX    TMP DP  RH WIND       PRES   REMARKS
CAMP PENDLETON CLOUDY    59  54  83 CALM      30.04R
OCEANSIDE AP   CLOUDY    59  55  87 NE3       30.03S
OCEANSIDE HBR    N/A     57  54  88 S3        30.07R
VISTA            N/A     55  50  82 CALM      30.03R
CARLSBAD       CLOUDY    58  54  86 S3        30.03S
DEL MAR          N/A     58  55  88 CALM      30.07R
LA JOLLA SCRIP   N/A     59  55  85 S1        30.04R
FALLBROOK        N/A     55  55 100 CALM      30.03R
ESCONDIDO        N/A     56  53  88 SE5       30.06R
SAN MARCOS       N/A     56  51  83 CALM      30.06R
POWAY            N/A     55  52  89 CALM      30.07R

$$

EAST SAN DIEGO COUNTY

CITY           SKY/WX    TMP DP  RH WIND       PRES   REMARKS
RAMONA         CLOUDY    54  51  90 CALM      30.04R
SANTEE LAKES     N/A     55  53  92 CALM      30.05R
LA MESA          N/A     57  53  85 CALM      29.99R
JAMUL            N/A     54  52  94 CALM      30.06R
DESCANSO N       N/A     45  43  94 W3        29.99R
CAMPO            N/A     51  47  86 SW14      29.99R

$$

ORANGE COUNTY AND THE LOS ANGELES BASIN

CITY           SKY/WX    TMP DP  RH WIND       PRES   REMARKS
JOHN WAYNE AP  CLOUDY    60  54  80 VRB5      30.04R
LAGUNA BEACH     N/A     59  55  86 S3        29.99
LAKE FOREST FR   N/A     55  48  77 CALM      29.93S
HUNTINGTON BCH   N/A     59  56  89 CALM      30.06R
LOS ALAMITOS   PTSUNNY   60  54  80 N6        30.05R
FULLERTON      CLOUDY    61  54  77 CALM      30.04R
LONG BEACH     PTSUNNY   61  53  75 N6        30.05R
L.A. AP        PTSUNNY   60  54  80 NE6       30.04R
L.A. DOWNTOWN  PTSUNNY   61  52  72 CALM      30.03R

$$

THE INLAND EMPIRE

CITY           SKY/WX    TMP DP  RH WIND       PRES   REMARKS
CORONA         CLOUDY    57  52  83 NW7       30.06R
CHINO          CLOUDY    58  52  80 NW5       30.06R
ONTARIO        PTSUNNY   55  50  83 SW7       30.04R
SAN BERNARDINO PTSUNNY   57  48  72 W3        30.04R HAZE
RIVERSIDE AP   CLOUDY    56  52  86 SW3       30.05R
MORENO VALLEY    N/A     54  53  96 SW2       28.14R
MARCH ARB      CLOUDY    54  54 100 CALM      30.04R
HORSETHIEF CYN   N/A     56  45  66 S2        30.04R
PERRIS           N/A     51  51  98 S3        30.06R
HEMET EAST       N/A     52  47  83 CALM      30.05R
FRENCH VALLEY  CLOUDY    54  46  76 S6        30.04S
TEMECULA         N/A     55  52  89 SW2       30.10S

$$

SAN BERNARDINO AND RIVERSIDE COUNTY MOUNTAINS

CITY           SKY/WX    TMP DP  RH WIND       PRES   REMARKS
BIG BEAR AP    SUNNY     37  28  70 W22       30.04R WCI  27
ANGELUS OAKS     N/A     41  30  64 CALM      29.94R
PINE COVE        N/A     40  33  75 NW3       29.95R

$$

SOUTHERN DESERT INCLUDING THE COACHELLA VALLEY

CITY           SKY/WX    TMP DP  RH WIND       PRES   REMARKS
PALM SPRINGS   SUNNY     68  48  48 VRB7      29.88S
PALM DESERT      N/A     67  50  53 CALM      29.78R
THERMAL        SUNNY     70  47  43 NW15      29.86R
BLYTHE         SUNNY     66  50  56 SE6       29.86F
IMPERIAL AP    SUNNY     68  47  46 W10       29.87S
EL CENTRO NAS  MOSUNNY   71  42  35 W10       29.89S
YUMA AZ        MOSUNNY   67  46  47 W5        29.90S
MEXICALI       SUNNY     68  43  40 SW7       29.89F

$$

UPPER DESERT

CITY           SKY/WX    TMP DP  RH WIND       PRES   REMARKS
VICTORVILLE AP SUNNY     54  39  58 W21G29    30.03R
HESPERIA         N/A     55  39  55 NW5       30.14R
PALMDALE       MOSUNNY   54  41  61 W21       30.05R
LANCASTER      MOSUNNY   53  42  66 W26G40    30.02F
EDWARDS AFB    MOSUNNY   56  38  51 W26G33    29.99S
DAGGETT        SUNNY     59  40  49 W35G45    29.94R
29 PALMS N     MOSUNNY   61  36  39 N24G37    30.01R
NEEDLES        SUNNY     72  32  23 W13G20    29.84R

$$

REGIONAL REPORTS

CITY           SKY/WX    TMP DP  RH WIND       PRES   REMARKS
SANTA BARBARA  MOSUNNY   60  51  72 W8        30.05S
SANDBERG       FOG       43  41  93 N21G30    30.07R VSB<1/4
LAS VEGAS NV   MOSUNNY   63  35  35 NW6       29.82R
PHOENIX AZ     MOSUNNY   67  35  30 E5        29.89R
TIJUANA        CLOUDY    59  48  67 W3        30.08R
ENSENADA NW      N/A     61  32  33 W2        30.03R

$$

OFFSHORE ISLANDS

CITY           SKY/WX    TMP DP  RH WIND       PRES   REMARKS
CATALINA ARPT  FOG       53  53 100 NW16      30.04R VSB 1/4
SAN CLEMENTE I PTSUNNY   59  55  87 NW20G26   30.08R
SAN NICOLAS IS MOSUNNY   56  50  80 NW28G37   30.07R

$$

MARINE AND OFFSHORE BUOY REPORTS

STATION/POSITION SKY/WX   TEMP    WIND        PRES    VSBY  SWELL
                          AIR SEA DIR/SP/G                  HT/PER/DIR
                          (F)     (DEG/KT/KT) (MB)    (MI)  (FT/S/D)
TANNER BANKS               57 59  310/ 21/ 27 1018.8R         5/310/12
S CLEMENTE BASIN           59 60  310/ 17/ 19 1017.3R         5/280/12
SAN NICOLAS IS.               57                N/A           3/290/13
SO. S. ROSA ISLA           56 57  320/ 27/ 35 1018.9R         5/280/12
W. S. BARBARA CH           56 56  330/ 21/ 27 1019.5R         5/300/11
M. S. BARBARA CH                                N/A           3/230/12
S. MONICA BASIN            59 59  310/ 17/ 21 1016.8R         3/280/12
S PEDRO CHANNEL               60                N/A           2/270/13
CMP PENDLETON NS              60                N/A           2/230/14
OCEANSIDE OFFSHR              61                N/A           2/250/13
TORREY PINES OTR              61                N/A           2/270/13
POINT LOMA SOUTH              61                N/A           3/260/14

$$





USA.gov is the U.S. government's official web portal to all federal, state and local government web resources and services.